Hourly Data Report for July 26, 2003

SHERBROOKE A
QUEBEC

45°26'00.000" N
71°41'00.000" W
241.40 m
7028124
71610
YSC

Download Data

Hourly Data (July 2003)
Hourly Data Report for July 26, 2003
TIME
LST
Temp Definition
°C
Dew Point Definition
°C
Rel Hum Definition
%
Precip. Amount Definition
mm

Wind Dir Definition
10's deg

Wind Spd Definition
km/h
Visibility Definition
km
Stn Press Definition
kPa
Hmdx Definition


Wind Chill Definition


Weather Definition


00:00 17.1 12.5 74   24 4 15.0 99.19      
01:00 15.1 11.8 81   22 4 15.0 99.15      
02:00 14.6 11.9 84   25 4 15.0 99.19      
03:00 15.3 12.3 82   23 4 15.0 99.16      
04:00 14.4 12.3 87   29 4 15.0 99.16      
05:00 14.4 12.5 88   23 4 15.0 99.13      
06:00 17.2 13.6 79   25 4 15.0 99.10      
07:00 19.4 14.3 72   21 9 24.1 99.05     Mostly Cloudy
08:00 21.1 14.7 67   23 13 24.1 99.02 25   Mostly Cloudy
09:00 24.1 16.2 61   24 15 24.1 98.99 29   Mostly Cloudy
10:00 24.7 15.9 58   23 20 24.1 99.00 29   Mostly Cloudy
11:00 24.9 17.2 62   22 13 24.1 98.99 30   Mostly Cloudy
12:00 25.5 16.7 58   24 19 24.1 98.87 31   Mostly Cloudy
13:00 24.0 16.2 62   23 17 24.1 98.81 29   Mostly Cloudy
14:00 23.6 15.9 62   23 15 24.1 98.80 28   Cloudy
15:00 23.4 16.4 65   24 9 24.1 98.78 28   Cloudy
16:00 23.1 16.7 67   23 13 24.1 98.75 28   Cloudy
17:00 22.4 16.7 70   23 7 15.0 98.68 27    
18:00 20.3 16.6 79   27 17 15.0 98.65 25    
19:00 20.1 13.8 67   25 11 15.0 98.62     Rain
20:00 19.1 14.7 76   18 6 15.0 98.55      
21:00 18.6 15.2 81   26 4 6.4 98.55     Rain
22:00 20.5 15.2 72   26 17 15.0 98.51 25   Rain
23:00 18.4 14.8 80   25 20 15.0 98.59     Rain

Notes on Data Quality.

Legend

  • E = Estimated
  • M = Missing
  • NA = Not Available*
  • [empty] = Indicates an unobserved value
Date modified: